Probability
20 21 21 21 21 22 23 24 24 24 23 20 16 14 10 8 6 3 2 1 1 2 5 8 11 10 9 8 11 14 14 14 11 7 5 4 6 10 12 12 11 9 8
20 22 22 21 21 21 21 22 23 23 21 18 15 13 11 9 7 5 4 3 2 3 4 6 8 7 6 7 10 13 13 11 9 7 5 5 7 11 12 11 10 9 8
21 22 23 23 23 22 20 21 22 20 17 15 14 13 12 10 8 8 7 6 4 4 4 4 5 5 5 7 9 11 10 8 7 7 6 6 8 12 13 10 9 9 9
20 20 21 23 23 21 20 21 20 19 17 17 16 15 13 10 10 12 12 10 7 5 3 3 4 5 6 6 7 8 7 7 7 7 6 6 9 12 13 11 9 9 10
18 16 16 18 20 20 22 23 22 20 20 20 19 16 13 12 13 15 16 14 11 7 4 3 3 4 4 5 5 5 6 7 8 8 7 7 8 10 13 12 10 9 9
17 15 13 15 18 21 24 25 24 21 20 20 18 16 14 15 16 18 17 16 14 10 6 4 5 4 4 3 3 4 5 6 7 8 8 7 6 7 10 11 9 7 6
16 16 14 15 19 23 25 25 22 20 19 18 15 14 14 17 18 18 16 15 15 13 9 6 6 6 5 3 3 5 6 6 6 6 7 7 6 5 7 8 7 5 4
17 17 17 19 22 24 23 22 21 18 15 13 12 11 12 15 16 14 12 12 13 12 8 6 6 6 5 2 2 4 6 6 5 5 6 6 6 6 6 6 5 4 3
18 18 19 21 22 21 19 18 17 14 10 9 8 8 8 11 11 9 7 8 9 7 4 3 4 4 3 2 1 2 4 5 4 4 5 6 6 5 4 3 2 2 2
19 18 18 19 19 17 14 13 12 9 7 6 6 5 5 7 6 5 4 5 5 2 1 1 2 2 2 1 1 1 2 3 3 3 4 4 4 2 1 1 0 1 1
17 15 14 14 15 13 12 10 9 7 5 5 4 3 3 4 3 3 3 3 2 0 0 0 1 1 1 1 0 0 0 1 2 2 3 3 2 1 0 0 0 0 0
13 12 11 11 11 10 9 9 9 7 5 4 4 4 4 3 2 2 2 1 0 0 0 0 0 0 0 0 0 0 0 0 1 1 1 2 1 0 0 0 0 0 0
11 10 8 8 8 7 6 7 7 6 4 4 5 5 5 4 3 1 1 0 0 0 0 0 0 0 0 0 0 0 0 0 0 0 0 0 0 0 0 0 0 0 0
10 9 7 6 7 6 5 4 5 4 4 4 4 4 4 5 4 1 0 0 0 0 0 0 0 0 0 0 0 0 0 0 0 0 0 0 0 0 0 0 0 0 0
7 7 6 5 6 5 4 3 3 3 3 3 3 3 3 4 3 1 0 0 0 0 0 0 0 0 0 0 0 0 0 0 0 0 0 0 0 0 0 0 0 0 0
6 6 6 5 5 5 4 3 3 3 3 3 3 3 2 2 1 0 0 0 0 0 0 0 0 0 0 0 0 0 0 0 0 0 0 0 0 0 0 0 0 0 0
6 5 5 5 5 5 4 3 3 3 3 2 2 1 1 1 0 0 0 0 0 0 0 0 0 0 0 0 0 0 0 1 0 0 0 0 0 0 0 0 0 0 0
5 4 4 5 5 4 3 3 3 2 1 1 1 0 0 0 0 0 0 0 0 0 0 0 0 0 0 0 0 0 0 0 0 0 0 0 0 0 0 0 0 0 0
4 4 5 5 4 3 3 3 1 1 0 0 0 0 0 0 0 0 0 0 0 0 0 0 0 0 0 0 0 0 0 0 0 0 0 0 0 0 0 0 0 0 0
3 4 5 4 3 2 2 2 1 0 0 0 0 0 0 0 0 0 0 0 0 0 0 0 0 0 1 0 0 0 0 0 0 0 0 0 0 0 0 0 0 0 0
2 3 3 2 1 1 1 1 0 0 0 0 0 0 0 0 0 0 0 0 0 0 0 0 0 0 0 0 0 0 0 0 0 0 0 0 0 0 0 0 0 0 0
2 3 2 1 0 0 0 0 0 0 0 0 0 0 0 0 0 0 0 0 0 0 0 0 0 0 0 0 0 0 0 0 0 0 0 0 0 0 0 0 0 0 0
2 3 2 1 0 0 0 0 0 0 0 0 0 0 0 0 0 0 0 0 0 0 0 0 0 0 0 0 0 0 0 0 0 0 0 0 0 0 0 0 0 0 0
2 2 2 1 0 0 0 0 0 0 0 0 0 0 0 0 0 0 0 0 0 0 0 0 0 0 0 0 0 0 0 0 0 0 0 0 0 0 0 0 0 0 0
1 1 1 0 0 0 0 0 0 0 0 0 0 0 0 0 0 0 0 0 0 0 0 0 0 0 0 0 0 0 0 0 0 0 0 0 0 0 0 0 0 0 0
0 1 0 0 0 0 0 0 0 0 0 0 0 0 0 0 0 0 0 0 0 0 0 0 0 0 0 0 0 0 0 0 0 0 0 0 0 0 0 0 0 0 0
Wind_Speed
7 7 6 5 5 5 4 4 4 4 3 3 2 2 2 2 2 2 2 2 1 1 2 2 1 2 2 2 3 3 3 2 1 1 1 1 1 1 1 1 1 1 0
8 7 7 6 5 5 4 4 4 3 3 2 1 1 1 1 2 2 2 2 1 1 1 2 2 2 2 2 2 2 3 2 1 2 2 2 2 2 1 1 1 1 0
9 9 8 6 5 4 4 3 3 3 2 2 2 2 2 1 2 1 2 2 2 2 2 2 3 2 3 2 3 2 3 3 2 2 3 3 2 1 2 1 1 1 0
9 8 7 6 5 5 4 4 3 3 2 2 3 3 2 1 1 1 2 2 2 2 2 2 3 3 3 3 3 2 3 4 3 2 2 3 2 2 2 2 2 1 0
9 8 7 6 5 4 4 4 4 3 2 2 3 2 1 1 1 1 2 1 2 2 3 3 3 3 2 3 3 3 4 3 3 2 2 2 2 2 2 2 2 1 0
8 8 7 6 5 4 4 4 4 4 3 3 3 2 2 2 1 1 1 0 1 1 3 2 2 3 2 2 2 3 3 3 3 3 2 2 2 2 2 2 2 2 1
8 8 8 8 6 5 5 5 5 4 4 4 3 3 2 2 1 0 1 2 1 2 2 2 2 2 2 3 3 2 3 3 3 3 3 2 2 2 2 2 2 2 1
8 8 8 7 7 6 6 5 5 5 4 4 4 3 2 1 2 2 2 2 2 2 3 2 2 2 2 3 3 2 2 2 3 3 2 2 2 2 2 2 2 2 2
7 7 7 7 7 7 6 6 6 5 4 4 4 3 3 2 2 1 1 2 2 2 2 3 3 3 3 3 3 2 3 3 3 2 1 1 1 2 2 2 3 3 3
7 7 7 7 7 7 6 6 5 5 4 4 3 3 2 2 2 2 3 3 3 3 3 3 3 3 3 3 3 2 3 2 2 2 2 2 1 1 2 2 3 3 3
8 7 7 7 7 7 7 6 5 5 4 4 3 2 2 2 2 2 2 2 2 2 2 3 3 3 3 3 3 3 3 2 2 2 1 2 2 2 1 2 2 2 2
7 7 7 7 7 6 6 5 4 4 4 3 3 2 2 2 2 2 2 1 1 2 2 3 3 3 3 3 3 3 3 3 3 2 2 2 1 1 2 1 1 1 1
7 7 7 6 6 5 5 4 4 4 3 3 3 3 2 2 2 2 2 1 2 2 2 2 3 3 3 3 3 3 2 3 3 3 2 2 2 1 1 1 1 1 1
7 7 6 6 5 4 4 4 3 3 3 3 3 3 2 2 2 2 1 1 2 2 2 3 3 3 3 3 3 2 2 2 2 2 2 3 3 2 2 1 1 1 1
7 7 6 6 5 4 4 4 4 3 3 3 3 3 2 2 2 1 1 1 2 2 2 2 2 3 3 4 5 3 2 2 2 2 2 3 3 4 3 2 1 1 2
7 6 6 6 6 5 4 4 4 4 3 3 3 3 2 2 1 1 1 1 1 2 2 2 2 3 4 5 6 6 2 2 2 2 2 1 1 1 1 1 1 2 2
7 7 6 6 6 5 4 4 4 4 3 3 3 3 2 2 1 1 1 2 2 2 2 2 2 3 4 4 5 6 4 2 2 2 2 2 3 1 1 2 3 2 1
7 6 6 6 5 5 5 4 4 4 3 3 3 3 2 2 1 1 2 2 2 2 2 2 2 2 3 3 4 6 3 1 1 1 2 2 3 3 3 2 1 1 2
6 6 6 6 6 5 5 5 4 4 3 3 3 3 2 2 1 2 2 2 1 2 2 2 2 2 3 3 4 7 3 1 1 2 3 3 2 4 3 2 1 0 1
6 6 6 6 6 5 5 5 5 4 3 3 3 3 2 2 1 2 1 1 1 1 1 2 2 2 3 4 4 6 3 2 2 1 1 3 3 3 4 3 2 1 1
7 7 7 6 6 6 5 5 5 4 3 3 4 3 2 2 2 1 1 1 1 1 1 1 1 1 2 2 3 5 4 4 3 2 2 3 3 2 3 5 3 3 4
8 8 7 6 6 6 6 5 5 4 3 3 4 3 2 1 2 1 1 1 1 1 1 0 1 0 0 1 2 2 4 6 4 3 3 3 2 4 5 5 2 4 6
9 8 7 7 6 6 5 5 5 4 4 4 3 3 2 1 1 0 0 0 1 1 1 0 1 0 0 1 3 3 3 4 4 4 4 4 5 6 6 5 5 6 5
8 8 8 7 6 6 6 5 5 4 4 3 3 2 2 2 1 1 1 1 1 1 2 1 2 2 1 1 1 1 2 4 4 4 3 6 8 7 5 4 6 5 4
8 8 7 7 7 7 6 6 5 5 4 3 3 3 2 2 1 1 1 2 2 3 4 4 4 4 3 4 5 6 5 5 5 7 5 4 4 4 3 3 3 4 4
8 8 7 7 7 7 6 6 5 5 4 4 3 2 2 1 1 1 1 1 2 2 5 6 7 4 3 4 6 6 7 7 6 6 6 5 4 5 4 4 3 4 4
Wind_Direction
154 146 145 148 144 143 143 147 149 151 166 169 175 169 146 135 114 88 61 40 10 351 321 322 322 304 316 316 303 287 277 267 229 245 248 221 203 228 238 247 239 125 82
163 158 160 160 158 156 152 160 156 161 186 173 165 149 112 99 82 76 77 53 44 4 358 354 334 345 318 313 310 296 287 281 255 267 256 232 203 197 201 183 150 128 98
176 168 170 170 162 156 151 144 139 154 163 164 156 137 145 147 115 107 97 68 54 50 19 11 2 349 329 344 324 305 286 288 269 258 273 271 245 164 164 157 155 165 113
179 171 170 168 165 159 147 133 136 138 145 164 161 171 164 141 94 52 66 68 65 52 39 25 13 349 342 345 321 335 295 282 280 265 269 289 297 248 179 174 171 157 168
176 168 166 160 156 152 142 134 125 121 123 128 135 148 130 113 107 100 91 51 71 55 41 24 3 344 347 359 342 326 304 292 293 286 273 273 253 252 237 198 185 183 180
163 158 159 153 145 146 142 132 122 118 116 121 121 121 111 105 100 90 75 22 49 42 43 23 357 339 348 349 325 309 306 309 302 292 283 274 264 247 242 223 201 185 149
159 159 158 155 148 146 139 130 124 117 115 116 108 105 106 128 128 59 56 358 17 24 27 360 338 344 342 337 326 313 316 304 296 289 288 281 277 283 265 238 210 190 169
153 156 157 153 148 146 143 139 132 119 114 111 104 99 106 98 72 42 16 14 6 22 8 346 342 349 347 336 328 316 320 315 304 297 293 285 292 286 270 265 237 207 189
145 148 149 148 146 147 144 137 129 117 112 108 108 105 98 78 68 62 15 31 16 17 10 357 356 357 355 344 329 348 343 343 333 334 329 302 290 277 274 260 250 246 229
139 141 143 141 141 142 140 140 132 126 123 118 108 99 96 90 87 57 42 26 17 17 10 13 4 357 358 349 336 346 9 0 359 349 347 327 304 286 268 256 253 259 260
140 140 141 142 144 141 140 140 136 132 127 116 108 103 93 90 99 80 58 35 13 2 3 2 355 354 357 0 351 358 3 353 348 338 343 336 320 299 266 249 252 255 257
140 143 141 142 142 143 143 142 141 137 133 122 119 113 107 102 87 77 62 43 14 354 5 355 350 354 2 358 346 355 7 357 347 342 339 337 330 318 301 277 248 245 268
141 142 142 144 144 142 138 137 139 131 128 124 123 113 111 98 78 62 50 31 18 3 359 356 354 351 353 356 355 359 2 355 355 352 350 340 332 315 319 285 258 223 220
146 146 148 147 141 137 138 137 134 134 135 133 122 113 102 96 83 67 58 34 20 9 12 358 351 348 350 352 349 341 356 359 5 10 360 352 339 332 312 276 255 239 230
154 156 156 152 147 144 143 140 137 137 142 140 127 116 109 106 93 73 49 31 16 9 9 357 357 359 359 9 352 331 342 354 4 14 6 21 16 360 332 321 314 247 239
160 160 159 156 153 153 150 144 143 139 143 140 131 120 120 109 101 93 76 50 34 10 353 355 6 11 23 22 352 327 330 346 357 360 359 57 147 106 195 302 325 308 261
164 162 161 159 156 156 155 151 145 144 145 137 129 121 119 108 103 107 89 63 43 22 11 11 19 28 41 17 349 333 324 348 359 354 342 356 45 334 43 117 187 194 221
163 162 160 157 157 156 154 151 148 147 143 135 125 121 117 107 104 90 68 46 30 18 1 11 17 27 46 18 346 328 299 347 8 0 351 357 10 30 1 344 28 115 149
156 158 160 157 155 155 155 155 154 153 148 141 135 124 115 102 101 73 54 34 17 358 340 18 10 15 41 21 347 323 313 30 18 21 21 360 5 43 345 305 327 37 144
147 152 156 154 150 150 157 159 156 153 143 135 125 119 114 100 80 68 49 33 6 348 337 16 6 10 21 27 355 330 315 357 348 27 64 72 28 19 336 295 284 277 288
145 150 152 150 147 152 156 156 148 139 130 127 127 119 112 102 74 60 42 356 337 3 343 7 1 11 10 39 15 343 321 331 338 348 3 56 74 355 318 294 283 297 287
149 152 150 147 147 154 154 148 140 135 132 129 130 127 123 110 89 57 25 358 322 223 221 179 266 223 103 29 40 339 316 317 319 327 348 30 14 315 297 284 287 283 270
150 153 151 148 149 156 157 147 139 140 140 134 132 134 133 135 129 202 283 259 253 278 291 285 286 287 50 146 192 240 270 281 292 323 345 317 292 281 261 232 248 254 248
153 155 156 152 150 155 155 149 146 150 146 141 145 155 160 164 145 253 274 314 323 325 324 319 322 340 328 339 335 286 237 233 247 270 257 242 250 252 264 250 231 235 253
155 159 160 157 153 154 155 156 153 155 154 154 165 178 174 152 193 236 330 315 352 346 311 325 323 321 328 21 1 324 323 330 344 324 291 279 274 265 251 244 242 240 234
158 160 162 161 158 159 160 161 165 168 172 170 176 185 173 163 214 223 188 187 258 239 246 261 283 303 308 310 305 299 291 289 296 290 277 283 285 284 288 283 263 251 251